Change the Weather History Date:

Tuesday, March 18, 2014

  Actual Average Record
Temperature  
Mean Temperature 34 °F 43 °F  
Max Temperature 49 °F 58 °F 80 °F (2007)
Min Temperature 19 °F 27 °F 2 °F (1965)
Degree Days  
Heating Degree Days 31 22  
Month to date heating degree days 430 437  
Since 1 July heating degree days 4424 4559  
Cooling Degree Days 0 0  
Month to date cooling degree days 0 0  
Year to date cooling degree days 0 0  
Moisture  
Dew Point 14 °F    
Average Humidity 45    
Maximum Humidity 75    
Minimum Humidity 15    
Precipitation  
Precipitation 0.00 in 0.03 in 0.95 in (1984)
Month to date precipitation 0.46 0.49  
Year to date precipitation 0.55 1.38  
Sea Level Pressure  
Sea Level Pressure 29.75 in    
Wind  
Wind Speed 15 mph (North)    
Max Wind Speed 36 mph    
Max Gust Speed 44 mph    
Visibility 6 miles    
Events      
T = Trace of Precipitation, MM = Missing Value Source: NWS Daily Summary

Daily Weather History Graph

Daily Weather History Graph

Search for Another Location

Airport or City:

Trip Planner

Search our weather history database for the weather conditions in past years. The results will help you decide how hot, cold, wet, or windy it might be!

Date:

Astronomy

Mar. 18, 2014 Rise Set
Actual Time 7:03 AM MDT 7:07 PM MDT
Civil Twilight 6:37 AM MDT 7:33 PM MDT
Nautical Twilight 6:07 AM MDT 8:03 PM MDT
Astronomical Twilight 5:36 AM MDT 8:34 PM MDT
Moon 9:23 PM MDT (3/18) 7:57 AM MDT (3/18)
Length of Visible Light 12h 55m
Length of Day
12h 03m
Waning Gibbous, 96% of the Moon is Illuminated
Mar 18
Waning Gibbous
Mar 23
Last Quarter
Mar 30
New
Apr 7
First Quarter
Apr 15
Full

Hourly Weather History & Observations

Time (MDT) Temp. Windchill Dew Point Humidity Pressure Visibility Wind Dir Wind Speed Gust Speed Precip Events Conditions
12:14 AM 48.9 °F - 17.1 °F 28% 29.44 in 10.0 mi NW 17.3 mph - N/A   Clear
12:54 AM 46.9 °F - 17.1 °F 30% 29.27 in 10.0 mi NW 16.1 mph - N/A   Clear
1:54 AM 45.0 °F 39.7 °F 17.1 °F 33% 29.28 in 10.0 mi WNW 10.4 mph - N/A   Clear
2:54 AM 37.0 °F 33.3 °F 18.0 °F 46% 29.33 in 10.0 mi SSE 4.6 mph - N/A   Clear
3:54 AM 33.1 °F 26.9 °F 19.0 °F 56% 29.34 in 10.0 mi South 6.9 mph - N/A   Clear
4:54 AM 33.1 °F 27.7 °F 23.0 °F 66% 29.34 in 10.0 mi NNE 5.8 mph - N/A   Clear
5:54 AM 30.0 °F 22.4 °F 21.9 °F 72% 29.41 in 10.0 mi West 8.1 mph - N/A   Scattered Clouds
6:54 AM 27.0 °F 17.3 °F 19.9 °F 75% 29.46 in 10.0 mi WSW 10.4 mph - N/A   Clear
7:54 AM 28.9 °F 25.2 °F 21.0 °F 72% 29.50 in 10.0 mi NNW 3.5 mph - N/A   Clear
8:54 AM 39.9 °F 30.5 °F 3.0 °F 21% 29.50 in 10.0 mi NW 19.6 mph 25.3 mph N/A   Clear
9:54 AM 43.0 °F 33.8 °F 1.9 °F 18% 29.54 in 10.0 mi NNW 23.0 mph 31.1 mph N/A   Clear
10:54 AM 45.0 °F 37.9 °F 1.9 °F 17% 29.58 in 10.0 mi North 16.1 mph 28.8 mph N/A   Clear
11:54 AM 46.0 °F 38.0 °F 1.9 °F 16% 29.62 in 10.0 mi NNE 21.9 mph 27.6 mph N/A   Overcast
12:36 PM 44.1 °F 34.0 °F 12.9 °F 28% 29.75 in 2.5 mi North 29.9 mph 38.0 mph N/A   Haze
12:54 PM 44.1 °F 34.4 °F 12.9 °F 28% 29.67 in 1.5 mi NNE 27.6 mph 40.3 mph N/A   Haze
1:12 PM 45.0 °F 35.8 °F 12.9 °F 27% 29.78 in 2.5 mi NNE 26.5 mph 39.1 mph N/A   Haze
1:33 PM 44.1 °F 35.0 °F 12.9 °F 28% 29.79 in 1.2 mi NE 24.2 mph 34.5 mph N/A   Haze
1:51 PM 42.8 °F 33.3 °F 12.2 °F 29% 29.80 in 2.0 mi North 24.2 mph 38.0 mph N/A   Haze
1:54 PM 42.1 °F 31.5 °F 12.0 °F 29% 29.73 in 1.8 mi North 28.8 mph 36.8 mph N/A   Haze
2:05 PM 42.1 °F 31.7 °F 10.9 °F 28% 29.80 in 1.5 mi NNE 27.6 mph 40.3 mph N/A   Haze
2:54 PM 41.0 °F 30.5 °F 10.0 °F 28% 29.79 in 1.2 mi North 26.5 mph 35.7 mph N/A   Haze
3:24 PM 42.1 °F 33.3 °F 10.9 °F 28% 29.85 in 2.0 mi NNE 19.6 mph 39.1 mph N/A   Haze
3:33 PM 41.0 °F 29.8 °F 14.0 °F 33% 29.86 in 1.2 mi NNE 29.9 mph 36.8 mph N/A   Haze
3:54 PM 39.9 °F 28.4 °F 15.1 °F 36% 29.86 in 0.8 mi NNE 29.9 mph 39.1 mph N/A   Haze
4:13 PM 39.0 °F 27.6 °F 15.1 °F 38% 29.90 in 1.0 mi NNE 27.6 mph 34.5 mph N/A   Haze
4:54 PM 37.9 °F 27.9 °F 14.0 °F 38% 29.92 in 2.0 mi NNE 19.6 mph 29.9 mph N/A   Haze
5:03 PM 37.0 °F 25.4 °F 14.0 °F 39% 29.94 in 1.8 mi NNE 25.3 mph 32.2 mph N/A   Haze
5:15 PM 37.0 °F 26.4 °F 14.0 °F 39% 29.95 in 2.0 mi NNE 20.7 mph 27.6 mph N/A   Haze
5:42 PM 36.0 °F 25.3 °F 14.0 °F 41% 29.97 in 1.5 mi NE 19.6 mph 26.5 mph N/A   Haze
5:54 PM 36.0 °F 25.0 °F 14.0 °F 41% 30.00 in 1.2 mi NNE 20.7 mph 26.5 mph N/A   Haze
6:16 PM 35.1 °F 24.8 °F 14.0 °F 42% 29.99 in 2.0 mi NNE 17.3 mph 25.3 mph N/A   Haze
6:24 PM 35.1 °F 24.8 °F 14.0 °F 42% 30.00 in 3.0 mi NE 17.3 mph - N/A   Haze
6:54 PM 34.0 °F 23.8 °F 14.0 °F 44% 30.05 in 6.0 mi NE 16.1 mph - N/A   Haze
7:54 PM 32.0 °F 25.6 °F 12.9 °F 45% 30.09 in 8.0 mi NE 6.9 mph - N/A   Overcast
8:54 PM 30.9 °F 26.2 °F 14.0 °F 50% 30.08 in 10.0 mi East 4.6 mph - N/A   Overcast
9:54 PM 28.0 °F 22.8 °F 14.0 °F 56% 30.09 in 10.0 mi South 4.6 mph - N/A   Overcast
10:54 PM 27.0 °F 23.0 °F 14.0 °F 58% 30.10 in 10.0 mi South 3.5 mph - N/A   Clear
11:54 PM 21.9 °F 15.7 °F 12.0 °F 66% 30.12 in 10.0 mi West 4.6 mph - N/A   Clear